Kalamazoo, MI

5:42 AM EDT on August 22, 2017 (GMT -0400)
Kalamazoo-Battle Creek International

Weather History for KAZO - April, 2014

Change the Weather History Date:

Friday, April 4, 2014

  Actual Average Record
Temperature  
Mean Temperature 40 °F 44 °F  
Max Temperature 46 °F 55 °F 78 °F (1956)
Min Temperature 33 °F 34 °F 10 °F (1982)
Degree Days  
Heating Degree Days 25 21  
Month to date heating degree days 93 85  
Since 1 July heating degree days 6420 5742  
Cooling Degree Days 0 0  
Month to date cooling degree days 0 0  
Year to date cooling degree days 0 0  
Moisture  
Dew Point 37 °F    
Average Humidity 86    
Maximum Humidity 92    
Minimum Humidity 79    
Precipitation  
Precipitation 0.19 in 0.09 in 2.13 in (2003)
Month to date precipitation 0.93 0.37  
Year to date precipitation 4.71 5.86  
Sea Level Pressure  
Sea Level Pressure 29.62 in    
Wind  
Wind Speed 13 mph (SSW)    
Max Wind Speed 28 mph    
Max Gust Speed 37 mph    
Visibility 4 miles    
Events Fog , Rain , Snow    
T = Trace of Precipitation, MM = Missing Value Source: NWS Daily Summary

Daily Weather History Graph

Daily Weather History Graph

Search for Another Location

Airport or City:

Trip Planner

Search our weather history database for the weather conditions in past years. The results will help you decide how hot, cold, wet, or windy it might be!

Date:

Astronomy

Apr. 04, 2014 Rise Set
Actual Time 7:19 AM EDT 8:11 PM EDT
Civil Twilight 6:51 AM EDT 8:39 PM EDT
Nautical Twilight 6:17 AM EDT 9:13 PM EDT
Astronomical Twilight 5:42 AM EDT 9:48 PM EDT
Moon 10:32 AM EDT (4/4) 12:33 AM EDT (4/4)
Length of Visible Light 13h 48m
Length of Day
12h 51m
Waxing Crescent, 25% of the Moon is Illuminated
Apr 4
Waxing Crescent
Apr 7
First Quarter
Apr 15
Full
Apr 22
Last Quarter
Apr 29
New

Hourly Weather History & Observations

Time (EDT) Temp. Windchill Dew Point Humidity Pressure Visibility Wind Dir Wind Speed Gust Speed Precip Events Conditions
12:53 AM 37.0 °F 29.3 °F 34.0 °F 89% 29.74 in 9.0 mi East 11.5 mph 19.6 mph N/A   Overcast
1:53 AM 37.0 °F 31.0 °F 35.1 °F 93% 29.73 in 7.0 mi ESE 8.1 mph - N/A   Overcast
2:06 AM 37.0 °F 31.0 °F 35.1 °F 93% 29.70 in 6.0 mi SE 8.1 mph - N/A   Overcast
2:53 AM 37.0 °F 30.4 °F 35.1 °F 93% 29.73 in 5.0 mi SE 9.2 mph - N/A   Overcast
3:40 AM 37.0 °F 31.6 °F 35.1 °F 93% 29.70 in 2.5 mi SE 6.9 mph - N/A   Overcast
3:53 AM 37.0 °F 29.8 °F 35.1 °F 93% 29.72 in 2.0 mi SE 10.4 mph - N/A   Overcast
4:04 AM 37.0 °F 30.4 °F 35.1 °F 93% 29.68 in 1.8 mi SE 9.2 mph - N/A   Overcast
4:53 AM 37.0 °F 30.4 °F 35.1 °F 93% 29.64 in 1.2 mi ESE 9.2 mph - N/A   Overcast
5:53 AM 37.0 °F 31.6 °F 35.1 °F 93% 29.59 in 1.0 mi ESE 6.9 mph - N/A   Mist
6:53 AM 37.0 °F 33.3 °F 36.0 °F 96% 29.58 in 1.0 mi South 4.6 mph - N/A   Overcast
7:53 AM 37.9 °F 33.5 °F 36.0 °F 93% 29.55 in 1.2 mi ESE 5.8 mph - N/A   Overcast
8:28 AM 39.0 °F 36.8 °F 37.0 °F 93% 29.52 in 0.2 mi SSE 3.5 mph - N/A Fog Fog
8:48 AM 39.2 °F 35.0 °F 37.4 °F 93% 29.51 in 0.2 mi South 5.8 mph - N/A Fog Fog
8:53 AM 39.0 °F 34.0 °F 37.9 °F 96% 29.54 in 0.2 mi South 6.9 mph - N/A Fog Fog
9:41 AM 39.9 °F 35.1 °F 37.9 °F 93% 29.47 in 0.2 mi SE 6.9 mph - 0.04 in Fog , Rain Heavy Rain
9:43 AM 39.9 °F 35.1 °F 39.0 °F 97% 29.47 in 1.0 mi SSE 6.9 mph - 0.04 in Rain Rain
9:49 AM 39.2 °F 34.2 °F 39.2 °F 100% 29.47 in 3.0 mi SE 6.9 mph - 0.05 in Rain Light Rain
9:53 AM 39.9 °F 37.8 °F 39.0 °F 97% 29.48 in 2.5 mi SSE 3.5 mph - 0.05 in Rain Rain
10:01 AM 41.0 °F 38.0 °F 39.0 °F 93% 29.45 in 2.5 mi SE 4.6 mph - 0.02 in Rain Rain
10:32 AM 41.0 °F 37.1 °F 39.9 °F 96% 29.44 in 1.5 mi South 5.8 mph - 0.04 in Rain Light Rain
10:53 AM 42.1 °F 37.7 °F 39.9 °F 92% 29.47 in 0.8 mi South 6.9 mph - 0.05 in Rain Light Rain
11:53 AM 44.1 °F 38.1 °F 42.1 °F 93% 29.48 in 1.5 mi SSW 11.5 mph - 0.01 in Rain Light Rain
12:25 PM 46.0 °F 40.6 °F 44.1 °F 93% 29.47 in 5.0 mi WSW 11.5 mph - 0.02 in Rain Light Rain
12:53 PM 46.0 °F 39.9 °F 43.0 °F 89% 29.48 in 5.0 mi West 13.8 mph 21.9 mph 0.04 in Rain Light Rain
1:53 PM 45.0 °F 37.9 °F 42.1 °F 90% 29.49 in 3.0 mi WSW 16.1 mph 25.3 mph 0.01 in Rain Light Rain
2:38 PM 43.0 °F 34.2 °F 39.0 °F 86% 29.50 in 10.0 mi West 20.7 mph 28.8 mph 0.00 in   Overcast
2:53 PM 42.1 °F 32.3 °F 37.0 °F 82% 29.52 in 10.0 mi West 24.2 mph 35.7 mph 0.00 in   Overcast
3:53 PM 41.0 °F 31.4 °F 35.1 °F 79% 29.55 in 10.0 mi WSW 21.9 mph 29.9 mph N/A   Overcast
4:53 PM 39.0 °F 27.8 °F 33.1 °F 79% 29.59 in 10.0 mi West 26.5 mph 34.5 mph N/A   Overcast
5:53 PM 37.0 °F 28.5 °F 33.1 °F 86% 29.64 in 2.0 mi WSW 13.8 mph 27.6 mph 0.00 in Rain Light Rain
6:53 PM 37.0 °F 28.1 °F 33.1 °F 86% 29.67 in 5.0 mi WSW 15.0 mph 25.3 mph 0.00 in   Overcast
7:42 PM 37.0 °F 28.5 °F 32.0 °F 82% 29.68 in 2.0 mi West 13.8 mph 29.9 mph 0.00 in Rain Light Rain
7:53 PM 36.0 °F 24.4 °F 32.0 °F 86% 29.71 in 2.0 mi West 23.0 mph 31.1 mph 0.00 in Rain Light Rain
8:53 PM 35.1 °F 24.5 °F 34.0 °F 96% 29.75 in 8.0 mi West 18.4 mph 27.6 mph 0.00 in   Overcast
9:53 PM 35.1 °F 25.2 °F 32.0 °F 89% 29.78 in 10.0 mi West 16.1 mph 24.2 mph N/A   Overcast
10:53 PM 35.1 °F 24.1 °F 32.0 °F 89% 29.81 in 7.0 mi WNW 19.6 mph 25.3 mph 0.00 in Rain Light Rain
11:08 PM 34.0 °F 25.0 °F - N/A% 29.80 in 3.0 mi WNW 12.7 mph 21.9 mph 0.01 in Snow Light Snow
11:11 PM 34.0 °F 24.6 °F - N/A% 29.80 in 2.0 mi WNW 13.8 mph 21.9 mph 0.01 in Snow Light Snow
11:13 PM 34.0 °F 24.6 °F - N/A% 29.80 in 1.8 mi WNW 13.8 mph 21.9 mph 0.01 in Snow Light Snow
11:19 PM 34.0 °F 22.7 °F - N/A% 29.80 in 2.0 mi WNW 19.6 mph 35.7 mph 0.01 in Snow Light Snow
11:28 PM 34.0 °F 23.4 °F - N/A% 29.81 in 5.0 mi WNW 17.3 mph 28.8 mph 0.01 in Snow Light Snow
11:53 PM 34.0 °F 24.6 °F - N/A% 29.84 in 4.0 mi WNW 13.8 mph - 0.02 in Snow Light Snow